Weather observations for the past three days for
Valparaiso / Eglin Air Force Base
Imperial (Metric)
Date Time (cdt) Wind (mph) Vis. (mi.) Weather Sky Cond. Temperature (ºF) Relative Humidity Wind Chill (°F) Heat Index (°F) Pressure Precipitation (in)
Air Dwpt 6 hour altimeter (in) sea level (mb) 1 hr 3 hr 6 hr
Max. Min.
24 19:55 N 5 10.00 Thunderstorm FEW085 80.1 74.3 83% 85 30.12 1020.6
24 18:55 NE 3 10.00 Overcast FEW021 OVC029 82.6 76.1 91.4 81.7 81% 90 30.11 1020.2
24 17:55 W 6 10.00 Light Rain BKN026 OVC032 88 77.4 71% 101 30.09 1019.5
24 16:55 SW 10 10.00 Partly Cloudy SCT030 89.6 75.2 63% 100 30.09 1019.5
24 15:55 SW 8 10.00 Partly Cloudy FEW024 FEW160 SCT180 89.6 75.7 64% 101 30.1 1019.9
24 14:55 SW 14 10.00 A Few Clouds FEW150 FEW190 FEW210 90 75.6 63% 101 30.1 1019.9
24 13:55 S 15 G 21 10.00 Mostly Cloudy BKN025 BKN035 90.5 76.6 64% 103 30.11 1020.2
24 12:55 S 9 10.00 Partly Cloudy FEW024 SCT190 90.1 76.6 90.3 79.3 65% 103 30.11 1020.2
24 11:55 S 9 10.00 Mostly Cloudy SCT021 BKN049 BKN200 89.1 76.6 67% 101 30.12 1020.5
24 10:55 SE 7 10.00 Overcast BKN017 BKN023 OVC034 87.6 77.4 72% 100 30.13 1020.9
24 09:55 SE 8 10.00 Mostly Cloudy BKN014 BKN039 87.6 78.6 75% 102 30.14 1021.2
24 09:06 E 7 10.00 Partly Cloudy FEW017 SCT190 83.8 77 80% 94 30.13 1020.9
24 07:55 E 5 10.00 Fair CLR 81.3 75.2 82% 88 30.13 1020.9
24 06:55 NE 5 10.00 Fair CLR 80.2 75.2 82 79.3 85% 85 30.12 1020.5
24 05:55 Calm 10.00 Overcast OVC140 80.2 75.9 87% 86 30.12 1020.5
24 04:55 E 5 10.00 Mostly Cloudy BKN150 81.3 77 87% 89 30.11 1020.2
24 03:55 NE 5 10.00 Partly Cloudy FEW020 FEW028 SCT150 81.7 75.9 83% 89 30.1 1019.9
24 02:55 NE 3 10.00 Mostly Cloudy BKN170 81.7 75.6 82% 88 30.11 1020.2
24 01:55 NE 3 10.00 Fair CLR 81.5 76.1 84% 88 30.12 1020.5
24 00:55 Calm 10.00 Mostly Cloudy BKN150 81.7 75.9 87.8 81 83% 89 30.12 1020.5
23 23:55 Calm 10.00 Partly Cloudy FEW055 SCT075 SCT110 81.7 75.9 83% 89 30.13 1020.9
23 22:55 NE 6 10.00 Fair CLR 82.4 75.9 81% 90 30.15 1021.6
23 21:55 NW 3 10.00 Fair CLR 83.7 75.9 78% 92 30.13 1020.9
23 20:55 Calm 10.00 Fair CLR 85.5 75.7 73% 95 30.1 1019.9
23 19:55 Calm 10.00 Fair CLR 86 75.4 71% 95 30.09 1019.5
23 18:55 SW 6 10.00 Fair CLR 88 75 91.8 88 66% 98 30.07 1018.9
23 17:55 S 8 10.00 A Few Clouds FEW160 FEW200 88.3 75.4 66% 99 30.06 1018.5
23 16:55 S 8 10.00 A Few Clouds FEW170 89.2 74.5 62% 99 30.06 1018.5
23 15:55 S 9 10.00 Partly Cloudy FEW027 SCT200 89.8 74.8 62% 100 30.07 1018.9
23 14:55 S 10 10.00 Partly Cloudy FEW110 SCT150 SCT200 89.6 75.2 63% 100 30.07 1018.9
23 13:55 S 9 G 17 10.00 A Few Clouds FEW160 FEW190 FEW220 90.3 73.9 59% 100 30.07 1018.9
23 12:55 S 9 10.00 Partly Cloudy FEW140 SCT180 SCT200 90.5 76.6 90.5 80.4 64% 103 30.09 1019.5
23 11:55 SE 9 10.00 A Few Clouds FEW026 FEW190 89.6 75.2 63% 100 30.1 1019.9
23 10:55 S 9 10.00 Fair CLR 88.5 76.1 67% 100 30.1 1019.9
23 09:55 S 6 10.00 Partly Cloudy FEW022 SCT042 87.4 75.9 69% 98 30.1 1019.9
23 08:55 Calm 10.00 Fair CLR 86.2 76.5 73% 97 30.09 1019.5
23 07:55 N 3 10.00 Fair CLR 83.3 76.5 80% 92 30.08 1019.2
23 06:55 Calm 10.00 Fair CLR 80.8 75.7 80.8 76.8 85% 87 30.07 1018.9
23 05:55 Calm 10.00 Fair CLR 77.4 74.5 91% 79 30.06 1018.5
23 04:55 Calm 10.00 Fair CLR 77.9 74.7 90% 80 30.05 1018.2
23 03:55 Calm 10.00 Fair CLR 78.3 75.4 91% 81 30.04 1017.8
23 02:55 Calm 10.00 Fair CLR 79.9 75.6 87% 85 30.03 1017.5
23 01:55 Calm 10.00 Fair CLR 79.5 75.6 88% 84 30.04 1017.8
23 00:55 Calm 10.00 Fair CLR 79.9 75.9 85.8 79.7 88% 85 30.04 1017.8
22 23:55 Calm 10.00 A Few Clouds FEW160 83.1 75.4 78% 91 30.04 1017.8
22 22:55 SW 5 10.00 Fair CLR 83.5 75 76% 91 30.05 1018.2
22 21:55 S 5 10.00 Fair CLR 83.1 74.7 76% 90 30.05 1018.2
22 20:55 S 5 10.00 Fair CLR 83.1 74.7 76% 90 30.04 1017.8
22 19:55 S 6 10.00 Fair CLR 84.6 74.5 72% 92 30.02 1017.2
22 18:55 S 8 10.00 Partly Cloudy FEW025 SCT035 85.3 75.2 89.6 85.3 72% 94 30 1016.5
22 17:55 S 9 10.00 A Few Clouds FEW030 FEW040 87.4 75 67% 97 29.99 1016.2
22 16:55 SW 10 10.00 Fair CLR 88.2 75.2 66% 98 29.97 1015.5
22 15:55 SW 7 10.00 Fair CLR 89.2 75.4 64% 100 29.99 1016.2
22 14:55 SW 7 10.00 Fair CLR 88.5 75.6 66% 99 30.01 1016.8
22 13:55 SE 9 10.00 Mostly Cloudy FEW090 FEW120 BKN160 BKN200 87.4 75.6 68% 98 30.03 1017.5
22 12:55 Calm 10.00 Light Drizzle SCT100 BKN130 BKN160 86 75.9 86.4 76.3 72% 96 30.04 1017.8 0.13
22 11:55 Calm 10.00 Mostly Cloudy FEW110 FEW130 SCT170 BKN200 84 75.9 77% 93 30.06 1018.5 0.13
22 10:55 SW 5 10.00 Mostly Cloudy SCT140 BKN160 BKN180 83.8 75.7 77% 92 30.06 1018.5
22 09:55 SW 3 7.00 Partly Cloudy SCT021 SCT210 85.5 76.1 74% 95 30.06 1018.5
22 08:55 SW 3 10.00 Mostly Cloudy BKN170 84.7 76.3 76% 94 30.05 1018.2
22 07:55 Calm 10.00 Mostly Cloudy BKN160 81.9 73 75% 87 30.04 1017.8
22 06:55 Calm 10.00 Partly Cloudy SCT170 76.1 72.5 80.1 75.2 89% 76 30.03 1017.5
22 05:55 Calm 10.00 Mostly Cloudy FEW150 BKN170 75.7 72.9 91% 75 30.01 1016.8
22 04:55 Calm 10.00 A Few Clouds FEW170 76.3 73.4 91% 77 30 1016.5
22 03:55 Calm 10.00 Fair CLR 75.9 73 91% 76 30 1016.5
22 02:55 Calm 10.00 Fair CLR 78.1 74.5 89% 81 30 1016.5
22 01:55 NW 3 10.00 Partly Cloudy SCT140 SCT200 78.3 74.7 89% 81 30.01 1016.8
22 00:55 Calm 10.00 Partly Cloudy SCT130 79.9 75.6 84 79.7 87% 85 30.04 1017.9
21 23:55 Calm 10.00 Fair CLR 81.1 74.7 81% 87 30.05 1018.2
21 22:55 SW 3 10.00 Partly Cloudy FEW150 SCT170 80.6 72.7 77% 85 30.06 1018.5
21 21:55 Calm 10.00 Overcast OVC160 80.8 72.9 77% 85 30.05 1018.2
21 20:55 Calm 10.00 Overcast OVC160 81.9 72.7 74% 87 30.05 1018.2
Date Time (cdt) Wind (mph) Vis. (mi.) Weather Sky Cond. Air Dwpt Max. Min. Relative Humidity Wind Chill (°F) Heat Index (°F) altimeter (in) sea level (mb) 1 hr 3 hr 6 hr
6 hour
Temperature (ºF) Pressure Precipitation (in)